Regional Weather Roundup
Issued by NWS Northern Indiana

Home | Current Version | Previous Version | Text Only | Print | Product List | Glossary On
Versions: 1 2 3 4 5 6 7 8 9 10 11 12 13 14 15 16 17 18 19 20 21 22 23 24 25 26 27 28 29 30 31 32 33 34 35 36 37 38 39 40 41 42 43 44 45 46 47 48 49 50
000
ASUS43 KIWX 230810
RWRIWX

KIWX WEATHER ROUNDUP
NATIONAL WEATHER SERVICE NORTHERN INDIANA
400 AM EDT TUE SEP 23 2014

NOTE: "FAIR" INDICATES FEW OR NO CLOUDS BELOW 12,000 FEET WITH NO
SIGNIFICANT WEATHER AND/OR OBSTRUCTIONS TO VISIBILITY.

* THESE STATIONS ARE NOT UNDER NWS QUALITY CONTROL. THEY ALSO MAY NOT
  REPORT WEATHER SUCH AS PRECIPITATION OR FOG.

INZ001>027-230900-
NORTHERN INDIANA

CITY           SKY/WX    TMP DP  RH WIND       PRES   REMARKS
GARY*          CLEAR     49  44  81 CALM      30.28F
VALPARAISO     CLEAR     45  43  93 CALM      30.29F FOG
MICHIGAN CITY* CLEAR     43  43 100 CALM      30.29S
LAPORTE*       CLEAR     42  42 100 CALM      30.30S
KNOX*          CLEAR     42  41  93 CALM      30.28F
SOUTH BEND     CLEAR     46  42  86 CALM      30.30S
GOSHEN         CLEAR    N/A N/A N/A CALM      30.29S
MONTICELLO*    CLEAR     44  44  99 CALM      30.29S
LOGANSPORT*    CLEAR     43  41  93 CALM      30.31S
ROCHESTER*     CLEAR     45  45 100 CALM      30.30S
WARSAW*        CLEAR     43  43 100 CALM      30.29F
ANGOLA*          N/A     43  41  93 CALM      30.29S
FORT WAYNE     CLEAR     43  41  93 CALM      30.30F
HUNTINGTON*    CLEAR     43  43  99 CALM      30.29F FOG
PERU/GRISSOM   CLEAR     45  45 100 CALM      30.29F
MARION*          N/A     41  41  98 CALM      30.31S

$$
INZ028>050-230900-
CENTRAL INDIANA

CITY           SKY/WX    TMP DP  RH WIND       PRES   REMARKS
LAFAYETTE      CLEAR     46  45  96 CALM      30.29F
KOKOMO*        CLEAR     43  39  87 CALM      30.30F
MUNCIE*        CLEAR     43  41  93 CALM      30.30S
INDIANAPOLIS   CLEAR     49  44  83 N3        30.29S

$$
MIZ043>046-050>051-056>058-064>065-071>073-077>080-230900-
SOUTHWEST LOWER MICHIGAN

CITY           SKY/WX    TMP DP  RH WIND       PRES   REMARKS
BATTLE CREEK   CLEAR     47  43  86 CALM      30.29R
BENTON HARBOR  CLEAR     43  42  97 CALM      30.28S
COLDWATER*     CLEAR     44  43  97 MISG      30.29S
HILLSDALE*     CLEAR     40  40 100 CALM      30.29R FOG
HOLLAND        CLEAR     48  43  82 S5        30.27F
GRAND RAPIDS   CLEAR     47  44  90 CALM      30.27S
KALAMAZOO      CLEAR     44  42  93 CALM      30.28S
STURGIS*       CLEAR     43  43 100 CALM      30.29S
THREE RIVERS*  FAIR      44  42  95 S3        30.30R FOG

$$
OHZ001>008-015>018-024>025-230900-
NORTHWEST OHIO

CITY           SKY/WX    TMP DP  RH WIND       PRES   REMARKS
WAUSEON*       FAIR      41  39  93 CALM      30.29S
DEFIANCE       PTCLDY   N/A N/A N/A CALM      30.29S
FINDLAY        CLEAR     44  41  89 CALM      30.28S
TOLEDO EXPRESS CLEAR     43  42  97 CALM      30.29S
TOLEDO METCALF CLEAR     46  42  86 CALM      30.30S
LIMA           CLEAR     45  42  89 S5        30.29S

$$
AND FOR LAKE MICHIGAN COASTAL AND OPEN LAKE BUOY OBSERVATIONS

STATION/POSITION TEMP    WIND        PRES    VSBY  WAVE
                 AIR SEA DIR/SP/G                  HT/PER
                 (F)     (DEG/KT/KT) (MB)    (MI)  (FT/S)
CALUMET HARBOR    54     210/  4/  6 1023.9S
SAINT JOSEPH      52     130/  1/  7 1025.4F
SOUTH LAKE BUOY   61 62  220/ 12/ 14 1024.6F         2/ 4
4 MI NW BRIDGMAN  57 64  160/ 12/ 14   N/A           1/ 2
MICHIGAN CITY     56 63  170/ 10/ 14   N/A           1/ 2

$$
&&



USA.gov is the U.S. government's official web portal to all federal, state and local government web resources and services.